Terminal Aerodrome Forecast
Issued by NWS Kansas City/Pleasant Hill, MO

Home | Current Version | Previous Version | Text Only | Print | Product List | Glossary On
Versions: 1 2 3 4 5 6 7 8 9 10 11 12 13 14 15 16 17 18 19
000
FTUS43 KEAX 160300 AAA
TAFMCI
TAF AMD
KMCI 160302Z 1603/1624 12010KT P6SM SCT025 OVC035
      TEMPO 1603/1607 BKN025
     FM160700 12006KT 5SM BR OVC025
     FM161000 VRB04KT 4SM BR OVC008
     FM161400 15006KT P6SM SCT025 BKN035=

USA.gov is the U.S. government's official web portal to all federal, state and local government web resources and services.